Weather in Bukachevtsy

Ukraine / Ivano-Frankovsk District     49°15′16″N   24°29′52″E
temp.,
°C
wind,
m/s
gust,
m/s
humid.,
%
clouds,
%
prec.,
mm/h
press.,
hPa
HPBL,
m
17 august, wed
wed1700:00+18wnw399493 1.8 1009239
03:00+16wnw499683 2.3 1009237
06:00+15wnw379841 0.0 1010182
09:00+18wnw3490100 0.0 1010291
12:00+22nw4473100 0.0 1011819
15:00+24nw456395 0.5 10111118
18:00+23nw356997 0.3 1011595
21:00+19nnw228563 0.3 101219
18 august, thu
thu1800:00+18w22915 0.0 101216
03:00+16wnw22945 0.0 101222
06:00+16wnw22955 0.0 101214
09:00+20wnw23804 0.0 1013281
12:00+25nnw23570 0.0 10131015
15:00+28ne33470 0.0 10121637
18:00+28ene33494 0.0 10121655
21:00+22ene226912 0.0 101311
19 august, fri
fri1900:00+20ese11800 0.0 101311
03:00+18e11825 0.0 101311
06:00+17ese118229 0.0 101311
09:00+22ese34655 0.0 1013247
12:00+28ese34464 0.0 10131026
15:00+30e33385 0.0 10121540
18:00+29e444390 0.0 10111294
21:00+23e496126 0.0 1011125
20 august, sat
sat2000:00+20se346932 0.0 101258
03:00+19e237395 0.0 101235
06:00+18ese3377100 0.0 101157
09:00+23ese476317 0.0 1011324
12:00+29se564486 0.0 10111049
15:00+32ese443699 0.0 10101498
18:00+32ene44405 0.0 1008772
21:00+21ssw61275100 0.4 1011316
21 august, sun
sun2100:00+19nw228481 1.3 101128
03:00+18wnw2698100 1.3 1012184
06:00+19nw3595100 0.1 1012272
09:00+21nw459187 1.1 1012442
12:00+23nw347699 0.1 1012852
15:00+25wnw3365100 0.3 10111118
18:00+22wnw478499 0.8 1012360
21:00+20nw269599 1.3 1012153